Flag for Brazil Weather past 2 weeks in Campo Grande, Mato Grosso Do Sul, Brazil

Now
90 °F

Sunny.


Feels Like: 87 °F
Forecast: 68 / 92 °F
Wind: 10 mph from Northwest

Location: Campo Grande Aeroporto

Current Time: Aug 22, 2014 at 1:53:03 PM

Latest Report: Aug 22, 2014 at 1:00 PM


Visibility: 10 mi

Pressure: 29.98 "Hg

Humidity: 27%

Dew point: 52 °F

Location of Campo GrandeLocation

Historic Weather in Campo Grande — Graph

°F

Campo Grande temperature yesterday

Maximum temperature yesterday: 88 °F (at 1:00 PM)
Minimum temperature yesterday: 66 °F (at 3:00 AM)
Average temperature yesterday: 76 °F

Past Weeks' High & Low Weather Summary

 TemperatureHumidityPressure
High90 °F (Aug 22, 11:00 AM)100% (Aug 9, 6:00 AM)30.24 "Hg (Aug 9, 6:00 AM)
Low46 °F (Aug 13, 6:00 AM)23% (Aug 10, 11:00 AM)29.95 "Hg (Aug 10, 3:00 PM)
Average72 °F56%30.10 "Hg
* Reported Aug 7 12:00 Noon — Aug 22 12:00 Noon, Campo Grande, Weather by CustomWeather, © 2014

Note: Actual official high and low records may vary slightly from our data, if they occured in-between our weather recording intervals... More about our weather records

Advertising

Campo Grande weather history for previous 24 hours

 ConditionsComfort  
Time TempWeatherWind HumidityBarometerVisibility
12:00 PM
Aug 22
90 °FSunny.12 mph27%30.01 "Hg10 mi
11:00 AM90 °FSunny.12 mph27%30.04 "Hg10 mi
10:00 AM88 °FSunny.12 mph29%30.07 "Hg10 mi
9:00 AM84 °FSunny.17 mph33%30.07 "Hg10 mi
8:00 AM79 °FSunny.16 mph37%30.04 "Hg10 mi
7:00 AM73 °FSunny.13 mph44%30.04 "Hg10 mi
6:00 AM72 °FSunny.14 mph44%30.01 "Hg10 mi
5:00 AM70 °FSunny.12 mph46%30.01 "Hg10 mi
4:00 AM70 °FClear.5 mph46%30.01 "Hg10 mi
3:00 AM72 °FClear.10 mph44%30.01 "Hg10 mi
2:00 AM72 °FClear.9 mph47%30.01 "Hg10 mi
1:00 AM70 °FClear.7 mph50%30.04 "Hg10 mi
12:00 AM70 °FClear.8 mph50%30.04 "Hg10 mi
11:00 PM
Aug 21
70 °FClear.6 mph50%30.04 "Hg10 mi
10:00 PM70 °FClear.6 mph50%30.04 "Hg10 mi
9:00 PM72 °FClear.5 mph50%30.04 "Hg10 mi
8:00 PM70 °FClear.3 mph53%30.01 "Hg10 mi
7:00 PM77 °FClear.5 mph39%30.01 "Hg10 mi
6:00 PM81 °FClear.5 mph34%29.98 "Hg10 mi
5:00 PM84 °FClear.6 mph31%29.98 "Hg10 mi
4:00 PM88 °FClear.7 mph27%29.98 "HgN/A
3:00 PM88 °FSnow. Clear.10 mph27%29.98 "HgN/A
2:00 PM88 °FSunny.10 mph27%30.01 "Hg10 mi
1:00 PM88 °FSunny.14 mph29%30.01 "Hg10 mi
Weather by CustomWeather, © 2014

See weather overviewHow to use our weather pages